Погода в Жерелеве

Россия / Калужская область     54°11′32″N   33°43′17″E
темп.,
°C
ветер,
м/с
пор.,
м/с
влажн.,
%
обл.,
%
осадки,
мм/ч
давл.,
гПа
погр.,
м
7 июля, чт
чт700:00+19ююв229498 0.0 101135
03:00+18ю379280 0.0 1011145
06:00+17ю279821 0.7 1010200
09:00+20зюз358261 0.7 1011620
12:00+22зюз556530 0.0 10131055
15:00+22з456043 0.0 10141064
18:00+20сз456614 0.0 1015901
21:00+16сз2386100 0.0 101650
8 июля, пт
пт800:00+14сз2590100 0.0 101795
03:00+13ссз2491100 0.0 101765
06:00+14ссз248811 0.0 1018121
09:00+19с22645 0.0 1018702
12:00+22сз225497 0.1 10181604
15:00+22зсз2255100 0.3 10171437
18:00+20ссз3565100 0.1 1016485
21:00+17сз2277100 0.1 101719
9 июля, сб
сб900:00+14ссз22817 0.0 101717
03:00+13ссз22889 0.0 101613
06:00+14с128399 0.0 101656
09:00+20ссз116045 0.0 1015470
12:00+24ююз234871 0.0 10141445
15:00+25юз3346100 0.0 10121687
18:00+23з235554 0.2 10111117
21:00+17с228887 0.8 101135
10 июля, вс
вс1000:00+15ссз1188100 0.3 101112
03:00+15всв0191100 1.0 101011
06:00+15св1192100 0.1 101029
09:00+16ссв229674 2.4 1009142
12:00+17зсз239498 3.3 1010109
15:00+20с3379100 3.8 1009409
18:00+21ссз2279100 0.9 1008367
21:00+17с2395100 4.6 100853
11 июля, пн
пн1100:00+16сз46100100 13.5 1008184
03:00+15св379971 14.6 1007206
06:00+16св1298100 0.4 100697
09:00+16всв2799100 3.0 1005332
12:00+16всв61397100 4.8 1004819
15:00+19вюв6119497 6.3 10031039
18:00+18ю2695100 1.7 1003316
21:00+15юз2599100 8.3 1003320